Regional Weather Roundup
Issued by NWS Wilmington, NC

Home | Current Version | Previous Version | Text Only | Print | Product List | Glossary On
Versions: 1 2 3 4 5 6 7 8 9 10 11 12 13 14 15 16 17 18 19 20 21 22 23 24 25 26 27 28 29 30 31 32 33 34 35 36 37 38 39 40 41 42 43 44 45 46 47 48 49 50
000
ASUS42 KILM 241313
RWRILM
RWRILM
REGIONAL HOURLY WEATHER ROUNDUP
NATIONAL WEATHER SERVICE WILMINGTON NC
900 AM EDT SUN MAY 24 2015

NOTE: "FAIR" INDICATES FEW OR NO CLOUDS BELOW 12,000 FEET WITH NO
SIGNIFICANT WEATHER AND/OR OBSTRUCTIONS TO VISIBILITY.

...............WFO WILMINGTON COUNTY WARNING AREA...............

......COASTAL NC AND SC COUNTIES......

CITY           SKY/WX    TMP DP  RH WIND       PRES   REMARKS
WILMINGTON     SUNNY     75  63  66 NE5       30.41R
N MYRTLE BEACH SUNNY     76  58  53 E14       30.40R
MYRTLE BEACH   MOSUNNY   77  57  50 E12       30.41R

......INLAND NC AND SC COUNTIES.......

CITY           SKY/WX    TMP DP  RH WIND       PRES   REMARKS
LUMBERTON      SUNNY     72  60  66 E3        30.41S
ELIZABETHTOWN  SUNNY     68  62  83 CALM      30.41F
WHITEVILLE     SUNNY     70  60  70 CALM      30.41R
FLORENCE       SUNNY     71  59  65 NE5       30.40F
DARLINGTON     SUNNY     68  57  68 NE3       30.42S

....................REST OF NORTH CAROLINA......................

.........EASTERN NC.........

CITY           SKY/WX    TMP DP  RH WIND       PRES   REMARKS
CAPE HATTERAS  SUNNY     72  58  61 NE5       30.43R
JACKSONVILLE   SUNNY     70  61  73 E6        30.42F
MOREHEAD CITY  SUNNY     74  60  61 CALM      30.41S
KENANSVILLE    SUNNY     69  61  76 CALM      30.44R
NEW BERN       SUNNY     72  62  71 E6        30.43S
ELIZABETH CITY SUNNY     69  55  60 SE7       30.43S

.........CENTRAL NC.........

CITY           SKY/WX    TMP DP  RH WIND       PRES   REMARKS
RALEIGH DURHAM MOSUNNY   70  60  70 VRB5      30.43S
ROCKY MOUNT    SUNNY     68  58  70 S5        30.43S
ROANOKE RAPIDS NOT AVBL
FAYETTEVILLE   SUNNY     68  61  78 CALM      30.42S
HOFFMAN        SUNNY     68  60  75 SE3       30.45F

.........WESTERN NC.........

CITY           SKY/WX    TMP DP  RH WIND       PRES   REMARKS
CHARLOTTE      PTSUNNY   67  55  65 CALM      30.43S
GREENSBORO     MOSUNNY   66  57  72 W10       30.43R
HICKORY        NOT AVBL
BOONE          NOT AVBL
ASHEVILLE      NOT AVBL

.....................REST OF SOUTH CAROLINA.....................

.........EASTERN SC.........

CITY           SKY/WX    TMP DP  RH WIND       PRES   REMARKS
CHARLESTON     MOSUNNY   74  61  63 NE6       30.37R
BEAUFORT MCAS  MOSUNNY   76  63  64 E6        30.35S
HILTON HEAD    SUNNY     75  63  64 NE9       30.35R

.........CENTRAL SC.........

CITY           SKY/WX    TMP DP  RH WIND       PRES   REMARKS
COLUMBIA       PTSUNNY   71  58  63 SE5       30.38F
ORANGEBURG     SUNNY     72  60  66 E5        30.38F
SUMTER SHAW    SUNNY     70  59  66 NE3       30.38S

.........WESTERN SC.........

CITY           SKY/WX    TMP DP  RH WIND       PRES   REMARKS
GREENVILLE     NOT AVBL
ROCK HILL      SUNNY     70  58  65 CALM      30.42F
ANDERSON       SUNNY     67  57  70 NE6       30.40S
CLEMSON        NOT AVBL
GREENWOOD      MOSUNNY   65  58  78 NE3       30.40F


...................COASTAL AND OFFSHORE REPORTS..................

................LOCAL PIERS AND NC RESERVE................


STATION/POSITION TIME  SKY/WX   TEMP    WIND        PRES    VSBY
                                AIR SEA DIR/SP/G
                 (UTC)          (F)     (DEG/KT/KT) (MB)    (MI)
JOHNY MRCER PIER 1200            75 76  110/  9/ 11 1028.8R
NC RESRV MASNBRO NOT AVBL
OCEAN CREST PIER 1202            72 75   20/  4/  6 1028.3R
SPRINGMAID  PIER 1200            74 74   70/ 11/ 12 1028.7R


................COASTAL AND OFFSHORE BUOYS................


STATION/POSITION TIME  SKY/WX   TEMP    WIND        PRES    VSBY
                                AIR SEA DIR/SP/G
                 (UTC)          (F)     (DEG/KT/KT) (MB)    (MI)
DIMNDSHOAL 41025 1250            74 77   80/  4/  6 1030.2R
WVE H/P(F/S)=  2/ 6 WND WVE H/P(F/S)=  2/ 3 SWL H/P/D(F/S/D)=  2/ 50/ 6

CAPE LOOKOUT     1300            74      60/  5/  5 1029.7R
ONSLOW BAY 41036 NOT AVBL
5 WRITEBCH 41038 1208            75 76  120/ 10/ 16 1029.4R
MASONBORO  41110 1219               76                N/A
WVE H/P(F/S)=  3/ 6 WND WVE H/P(F/S)=  3/ 6

WILM HARBR 41108 1211               75                N/A
WVE H/P(F/S)=  3/ 6 WND WVE H/P(F/S)=  3/ 6

27WRITEBCH 41037 1200            72 77  110/ 10/ 12   N/A
FRYING PAN 41013 1250            75 73  110/ 12/ 14 1029.5R
WVE H/P(F/S)=  4/ 6 WND WVE H/P(F/S)=  3/ 5 SWL H/P/D(F/S/D)=  2/120/ 6

SUNST NRSH 41024 NOT AVBL
CAPRS NRSH 41029 1208            75     100/ 14/ 17 1028.2R
EDISTO     41004 1250            75 75   90/ 16/ 17 1027.3R
WVE H/P(F/S)=  5/ 7 WND WVE H/P(F/S)=  3/ 7 SWL H/P/D(F/S/D)=  2/14



..........OFFSHORE BUOYS BEYOND 100 NM OFFSHORE...........
.....IN A TRIANGLE---HAT TO BERMUDA TO BAHAMAS TO HAT.....


STATION/POSITION TIME  SKY/WX   TEMP    WIND        PRES    VSBY
                                AIR SEA DIR/SP/G
                 (UTC)          (F)     (DEG/KT/KT) (MB)    (MI)
150E HAT   41001 NOT AVBL
W BERMUDA  41048 1250            68 73   70/ 10/ 14 1027.3S
WVE H/P(F/S)=  4/ 5 WND WVE H/P(F/S)=  2/ 4 SWL H/P/D(F/S/D)=  3/ 60/ 5

ATLANTIC S 41049 1250            76 78   30/ 10/ 12 1023.7R
WVE H/P(F/S)=  4/10 WND WVE H/P(F/S)=  2/ 4 SWL H/P/D(F/S/D)=  3/330/10

E BAHAMAS  41046 1250            80 81   80/ 14/ 17 1021.7R
WVE H/P(F/S)=  4/ 6 WND WVE H/P(F/S)=  3/ 6 SWL H/P/D(F/S/D)=  2/ 90/10

NE BAHAMAS 41047 1250            78 79   70/ 12/ 14 1023.4R
WVE H/P(F/S)=  4/ 9 WND WVE H/P(F/S)=  2/ 5 SWL H/P/D(F/S/D)=  3/ 10/ 9

120E CANVRL41010 1220            78 80   70/ 12/ 14 1023.8F

END



USA.gov is the U.S. government's official web portal to all federal, state and local government web resources and services.